Погода в Совата

Румыния     46°34′55″N   25°03′19″E
темп.,
°C
ветер,
м/с
пор.,
м/с
влажн.,
%
обл.,
%
осадки,
мм/ч
давл.,
гПа
погр.,
м
4 марта, чт
чт423:00+2в11850 0.0 102822
02:00+2в118619 0.0 102622
05:00+1в11870 0.0 102422
08:00+2вюв11850 0.0 102222
11:00+8з126028 0.0 1020404
14:00+10сз234525 0.0 1017726
17:00+9ссз23510 0.0 1016426
20:00+5св126619 0.0 101622
5 марта, пт
пт523:00+4юв116965 0.0 101622
02:00+2вюв127748 0.0 101622
05:00+1вюв128535 0.0 101422
08:00+2вюв228168 0.0 101463
11:00+7ю2455100 0.0 1012498
14:00+10з474597 0.0 10121544
17:00+5сз4888100 1.3 1014648
20:00+5ссз2594100 4.0 1017446
6 марта, сб
сб623:00+3сз3694100 4.5 1019506
02:00+2зсз3497100 5.2 1021245
05:000ссв1296100 1.3 1023203
08:00−1всв2391100 2.3 1026313
11:000всв1274100 0.3 1027580
14:00+2з226098 0.5 10271149
17:00+2зсз334967 0.1 10281664
20:00−2сз126140 0.1 103126
7 марта, вс
вс723:00−2з11690 0.0 103221
02:00−3ююз11740 0.0 103225
05:00−4юз117822 0.0 103138
08:00−3зюз117211 0.0 1030155
11:00+1зсз34470 0.0 10281049
14:00+2зсз45400 0.0 10241255
17:00+2зсз35460 0.0 10221026
20:00−2с11580 0.0 102321
8 марта, пн
пн823:00−2ссз11600 0.0 102321
02:00−3сз11640 0.0 102221
05:00−3з11690 0.0 102121
08:00−2зюз00671 0.0 102078
11:00+2сз244987 0.0 1019807
14:00+4сз354557 0.0 10181048
17:00+3сз355111 0.0 1017867
20:00−1с126620 0.0 102021